Simultaneous Nadir Overpasses (SNOs) Predictions

Prediction of SNOs between GOES-16 and TERRA Satellite Orbit:

Table of predicted SNOs for the next 14.0 days since TLE Epoch: 2/24/2024
Index Date Time (GOES-16) GOES-16 Lat,Lon TERRA Lat,Lon Distance(km) Time Diff (sec)
1 02/25/2024 14:57:38 0.05, -75.22 0.12, -75.67 50.07 80
2 02/27/2024 14:38:01 0.05, -75.24 -0.74, -71.58 416.46 80
3 02/28/2024 03:00:51 -0.05, -75.22 -0.32, -76.48 142.63 80
4 03/01/2024 02:41:14 -0.05, -75.24 0.57, -72.40 324.32 80
5 03/01/2024 15:03:56 0.05, -75.27 0.45, -77.27 226.34 80
6 03/03/2024 14:44:18 0.05, -75.29 -0.40, -73.17 240.87 80
7 03/04/2024 03:07:08 -0.05, -75.28 -0.63, -78.07 317.81 80
8 03/06/2024 02:47:30 -0.04, -75.30 0.25, -73.98 149.71 80
9 03/06/2024 15:07:32 0.04, -75.32 0.78, -78.85 401.07 80
10 03/08/2024 14:53:13 0.04, -75.35 -0.06, -74.75 67.45 80
